Location: Pedholt
(56.0260°N, 10.2097°E)
Time: 04:24:08
(UTC+00:00)

SeaSat 1 - Pass Details

Date: 14 July 2020
Orbit: 744 x 748 km, 108.0° (Epoch: 14 August)

Event Time Altitude Azimuth Distance (km) Brightness Sun altitude
Rises 00:33:57 0° 40° (NE) 3,204 7.1 -11.0°
Reaches altitude 10° 00:36:40 10° 54° (NE) 2,275 5.8 -10.9°
Maximum altitude 00:40:37 23° 107° (ESE) 1,542 4.1 -10.7°
Drops below altitude 10° 00:44:32 10° 160° (SSE) 2,263 4.5 -10.5°
Enters shadow 00:45:02 - 164° (SSE) 2,422 4.6 -10.5°
